Flag for Cyprus Weather past 2 weeks in Paphos, Cyprus

Now
77 °F

Passing clouds.


Feels Like: 78 °F
Forecast: 74 / 86 °F
Wind: 5 mph from Northwest

Location: Paphos Airport

Current Time: Jul 30, 2014 at 2:01:40 AM

Latest Report: Jul 30, 2014 at 1:30 AM


Visibility: N/A

Pressure: 29.71 "Hg

Humidity: 89%

Dew point: 73 °F

Location of PaphosLocation

Historic Weather in Paphos — Graph

°F

Paphos temperature yesterday

Maximum temperature yesterday: 88 °F (at 1:00 PM)
Minimum temperature yesterday: 72 °F (at 1:30 AM)
Average temperature yesterday: 80 °F

Past Weeks' High & Low Weather Summary

 TemperatureHumidityPressure
High88 °F (Jul 27, 4:00 PM)94% (Jul 20, 1:30 AM)29.89 "Hg (Jul 20, 1:30 AM)
Low68 °F (Jul 24, 5:00 AM)51% (Jul 22, 8:00 AM)29.65 "Hg (Jul 20, 2:30 AM)
Average79 °F78%29.75 "Hg
* Reported Jul 15 1:00 AM — Jul 30 1:00 AM, Paphos, Weather by CustomWeather, © 2014

Note: Actual official high and low records may vary slightly from our data, if they occured in-between our weather recording intervals... More about our weather records

Advertising

Paphos weather history for previous 24 hours

 ConditionsComfort  
Time TempWeatherWind HumidityBarometerVisibility
1:00 AM
Jul 30
77 °FPassing clouds.6 mph89%29.71 "HgN/A
12:30 AM77 °FPassing clouds.7 mph94%29.71 "HgN/A
12:00 AM79 °FPassing clouds.8 mph89%29.71 "HgN/A
11:30 PM
Jul 29
79 °FPassing clouds.8 mph89%29.71 "HgN/A
11:00 PM79 °FPassing clouds.9 mph89%29.71 "HgN/A
10:30 PM81 °FClear.8 mph89%29.71 "Hg10 mi
10:00 PM81 °FClear.10 mph89%29.71 "Hg10 mi
9:30 PM81 °FClear.9 mph84%29.71 "Hg10 mi
9:00 PM81 °FPassing clouds.9 mph84%29.71 "HgN/A
8:30 PM81 °FPassing clouds.9 mph84%29.71 "HgN/A
8:00 PM82 °FPassing clouds.10 mph79%29.71 "HgN/A
7:30 PM82 °FSunny.12 mph84%29.71 "Hg10 mi
7:00 PM84 °FPassing clouds.12 mph79%29.71 "HgN/A
6:30 PM84 °FPassing clouds.14 mph79%29.74 "HgN/A
6:00 PM86 °FPassing clouds.14 mph75%29.74 "HgN/A
5:30 PM86 °FPassing clouds.16 mph75%29.74 "HgN/A
5:00 PM86 °FPassing clouds.16 mph79%29.74 "HgN/A
4:30 PM86 °FPassing clouds.16 mph79%29.74 "HgN/A
4:00 PM88 °FPassing clouds.16 mph75%29.74 "HgN/A
3:30 PM88 °FPassing clouds.15 mph75%29.74 "HgN/A
3:00 PM88 °FPassing clouds.14 mph70%29.74 "HgN/A
2:30 PM88 °FPassing clouds.12 mph75%29.77 "HgN/A
2:00 PM86 °FPassing clouds.12 mph75%29.77 "HgN/A
1:30 PM86 °FPassing clouds.10 mph75%29.77 "HgN/A
1:00 PM88 °FPassing clouds.8 mph70%29.77 "HgN/A
12:30 PM86 °FPassing clouds.5 mph75%29.77 "HgN/A
12:00 PM84 °FPassing clouds.3 mph79%29.77 "HgN/A
11:30 AM84 °FPassing clouds.5 mph74%29.80 "HgN/A
11:00 AM84 °FPassing clouds.6 mph74%29.80 "HgN/A
10:30 AM84 °FPassing clouds.5 mph74%29.77 "HgN/A
10:00 AM84 °FPassing clouds.5 mph74%29.77 "HgN/A
9:30 AM84 °FPassing clouds.3 mph74%29.80 "HgN/A
9:00 AM84 °FPassing clouds.3 mph74%29.77 "HgN/A
8:30 AM84 °FPassing clouds.3 mph74%29.77 "HgN/A
8:00 AM82 °FPassing clouds.2 mph66%29.77 "HgN/A
7:30 AM79 °FSunny.5 mph58%29.77 "Hg10 mi
7:00 AM75 °FPassing clouds.6 mph61%29.77 "HgN/A
6:30 AM72 °FPassing clouds.6 mph69%29.77 "HgN/A
6:00 AM72 °FPassing clouds.6 mph73%29.77 "HgN/A
5:30 AM72 °FMild.7 mph73%29.77 "HgN/A
5:00 AM72 °FMild.7 mph69%29.77 "HgN/A
4:30 AM72 °FMild.2 mph69%29.77 "HgN/A
4:00 AM72 °FMild.3 mph69%29.77 "HgN/A
3:30 AM72 °FMild.5 mph78%29.77 "HgN/A
3:00 AM73 °FClear.6 mph83%29.77 "Hg10 mi
2:30 AM73 °FClear.5 mph83%29.77 "Hg10 mi
2:00 AM73 °FClear.5 mph83%29.77 "Hg10 mi
Weather by CustomWeather, © 2014

See weather overviewHow to use our weather pages